Regional Weather Roundup
Issued by NWS

Home | Current Version | Previous Version | Text Only | Print | Product List | Glossary On
Versions: 1 2 3 4 5 6 7 8 9 10 11 12 13 14 15 16 17 18 19 20 21 22 23 24 25 26 27 28 29 30 31 32 33 34 35 36 37 38 39 40 41 42 43 44 45 46 47 48 49 50
000
ASUS46 KPQR 020910
RWROR

OREGON REGIONAL WEATHER ROUNDUP
NATIONAL WEATHER SERVICE PORTLAND OR
200 AM PDT THU JUL 02 2015

NOTE: "FAIR" INDICATES FEW OR NO CLOUDS BELOW 12,000 FEET WITH
NO SIGNIFICANT WEATHER AND/OR OBSTRUCTIONS TO VISIBILITY.

ORZ001>013-021000-
NORTHWEST OREGON


CITY           SKY/WX    TMP DP  RH WIND       PRES   REMARKS
ASTORIA        PTCLDY    56  54  93 SW6       30.00S
PORTLAND       CLEAR     73  59  61 CALM      29.94S
VANCOUVER WA   CLEAR     66  55  67 CALM      29.93S
SCAPPOOSE      CLEAR     73  54  51 N7        29.93R
HILLSBORO      CLEAR     64  55  72 CALM      29.94R
AURORA         CLEAR     70  56  61 NE3       29.95S
MCMINNVILLE    CLEAR     67  56  67 W5        29.95S
SALEM          CLEAR     67  57  70 CALM      29.93S
CORVALLIS      CLEAR     64  54  68 NW6       29.96R
EUGENE         CLEAR     66  57  72 CALM      29.95S
$$

ORZ021-028-021000-
SOUTHWEST OREGON


CITY           SKY/WX    TMP DP  RH WIND       PRES   REMARKS
NORTH BEND     CLOUDY    57  57 100 N7        30.02S
BROOKINGS      MOCLDY    55  55 100 CALM      29.96F FOG
ROSEBURG       CLEAR     75  58  55 CALM      29.95R
SEXTON SUMMIT  CLEAR     71  50  47 N10       30.10F
MEDFORD        CLEAR     81  56  42 S3        29.93F
$$

ORZ014>016-041-021000-
COLUMBIA GORGE


CITY           SKY/WX    TMP DP  RH WIND       PRES   REMARKS
TROUTDALE      CLEAR     68  58  70 CALM      29.93R
THE DALLES     CLEAR     81  56  42 NW10      29.88R
$$

ORZ029>031-041-044-049-050-061>064-502-503-505>511-021000-
EASTERN OREGON


CITY           SKY/WX    TMP DP  RH WIND       PRES   REMARKS
REDMOND        CLEAR     65  43  44 S3        30.04F
BEND             N/A    N/A N/A N/A MISG        N/A
PRINEVILLE     CLEAR     64  41  42 CALM      30.06R
KLAMATH FALLS  PTCLDY    67  53  61 CALM      30.11S
LAKEVIEW       CLEAR     63  45  51 NW3       30.15S
HERMISTON      CLEAR     69  47  45 SE3       29.89S
PENDLETON      CLEAR     71  46  40 SE9       29.94R
MEACHAM        CLEAR     49  45  86 CALM      30.11S
LA GRANDE      CLEAR     59  39  47 S3        30.04R
BAKER CITY     CLEAR     56  49  77 SW3       30.07S
BURNS          CLEAR     73  42  32 W6        30.11R
ROME             N/A     76  42  29 N7        30.05S
ONTARIO        PTCLDY    77  43  29 NW7       29.95R
$$


USA.gov is the U.S. government's official web portal to all federal, state and local government web resources and services.